Indiana, PA

6:58 AM EDT on October 17, 2019 (GMT -0400)
Indiana County-Stewart

Weather History for KIDI - August, 2019

Change the Weather History Date:

Saturday, August 10, 2019

  Actual Average Record
Temperature  
Mean Temperature 65 °F -  
Max Temperature 77 °F 81 °F 91 °F (1988)
Min Temperature 53 °F 60 °F 45 °F (1948)
Growing Degree Days 15 (Base 50)    
Moisture  
Dew Point 55 °F    
Average Humidity 72    
Maximum Humidity 100    
Minimum Humidity 41    
Precipitation  
Precipitation 0.00 in - - ()
Sea Level Pressure  
Sea Level Pressure 30.01 in    
Wind  
Wind Speed 2 mph (NW)    
Max Wind Speed 13 mph    
Max Gust Speed 21 mph    
Visibility 10 miles    
Events      
Averages and records for this station are not official NWS values.
T = Trace of Precipitation, MM = Missing Value Source: NWS Daily Summary

Daily Weather History Graph

Daily Weather History Graph

Search for Another Location

Airport or City:

Astronomy

Aug. 10, 2019 Rise Set
Actual Time 6:21 AM EDT 8:21 PM EDT
Civil Twilight 5:51 AM EDT 8:50 PM EDT
Nautical Twilight 5:15 AM EDT 9:27 PM EDT
Astronomical Twilight 4:35 AM EDT 10:06 PM EDT
Moon 5:02 PM EDT (8/10) 1:56 AM EDT (8/10)
Length of Visible Light 14h 58m
Length of Day
13h 59m
Waxing Gibbous, 79% of the Moon is Illuminated
Aug 10
Waxing Gibbous
Aug 15
Full
Aug 23
Last Quarter
Aug 30
New
Sep 5
First Quarter

Hourly Weather History & Observations

Time (EDT) Temp. Dew Point Humidity Pressure Visibility Wind Dir Wind Speed Gust Speed Precip Events Conditions
12:15 AM 57.2 °F 55.4 °F 94% 29.99 in 10.0 mi Calm Calm - N/A   Clear
12:35 AM 57.2 °F 55.4 °F 94% 29.99 in 10.0 mi Calm Calm - N/A   Clear
12:55 AM 57.2 °F 55.4 °F 94% 29.99 in 10.0 mi Calm Calm - N/A   Partly Cloudy
1:15 AM 57.2 °F 55.4 °F 94% 29.99 in 10.0 mi Calm Calm - N/A   Partly Cloudy
1:35 AM 57.2 °F 55.4 °F 94% 29.99 in 10.0 mi Calm Calm - N/A   Partly Cloudy
1:55 AM 57.2 °F 55.4 °F 94% 29.98 in 10.0 mi Calm Calm - N/A   Partly Cloudy
2:15 AM 55.4 °F 53.6 °F 94% 29.98 in 10.0 mi Calm Calm - N/A   Scattered Clouds
2:35 AM 55.4 °F 55.4 °F 100% 29.98 in 10.0 mi Calm Calm - N/A   Partly Cloudy
2:55 AM 55.4 °F 53.6 °F 94% 29.98 in 10.0 mi Calm Calm - N/A   Partly Cloudy
3:15 AM 55.4 °F 53.6 °F 94% 29.98 in 10.0 mi Calm Calm - N/A   Partly Cloudy
3:35 AM 55.4 °F 53.6 °F 94% 29.99 in 10.0 mi Calm Calm - N/A   Scattered Clouds
3:55 AM 55.4 °F 53.6 °F 94% 29.98 in 10.0 mi Calm Calm - N/A   Scattered Clouds
4:15 AM 55.4 °F 53.6 °F 94% 29.98 in 10.0 mi Calm Calm - N/A   Partly Cloudy
4:35 AM 55.4 °F 53.6 °F 94% 29.98 in 10.0 mi Calm Calm - N/A   Clear
4:55 AM 55.4 °F 53.6 °F 94% 29.98 in 10.0 mi Calm Calm - N/A   Clear
5:15 AM 55.4 °F 53.6 °F 94% 29.98 in 10.0 mi Calm Calm - N/A   Clear
5:35 AM 55.4 °F 53.6 °F 94% 29.98 in 10.0 mi Calm Calm - N/A   Clear
5:55 AM 55.4 °F 53.6 °F 94% 29.99 in 10.0 mi Calm Calm - N/A   Clear
6:15 AM 53.6 °F 53.6 °F 100% 30.00 in 10.0 mi Calm Calm - N/A   Clear
6:35 AM 55.4 °F 53.6 °F 94% 30.00 in 10.0 mi Calm Calm - N/A   Clear
6:55 AM 55.4 °F 53.6 °F 94% 30.00 in 10.0 mi Calm Calm - N/A   Clear
7:15 AM 57.2 °F 55.4 °F 94% 30.01 in 10.0 mi Calm Calm - N/A   Partly Cloudy
7:35 AM 57.2 °F 55.4 °F 94% 30.02 in 10.0 mi Calm Calm - N/A   Mostly Cloudy
7:55 AM 59.0 °F 57.2 °F 94% 30.02 in 10.0 mi Calm Calm - N/A   Mostly Cloudy
8:15 AM 60.8 °F 57.2 °F 88% 30.03 in 10.0 mi Calm Calm - N/A   Scattered Clouds
8:35 AM 62.6 °F 57.2 °F 82% 30.03 in 10.0 mi Calm Calm - N/A   Scattered Clouds
8:55 AM 64.4 °F 57.2 °F 77% 30.03 in 10.0 mi Calm Calm - N/A   Partly Cloudy
9:15 AM 66.2 °F 57.2 °F 73% 30.03 in 10.0 mi Calm Calm - N/A   Clear
9:35 AM 66.2 °F 57.2 °F 73% 30.03 in 10.0 mi SSW 3.5 mph - N/A   Scattered Clouds
9:55 AM 68.0 °F 57.2 °F 68% 30.03 in 10.0 mi Calm Calm - N/A   Partly Cloudy
10:15 AM 68.0 °F 57.2 °F 68% 30.03 in 10.0 mi Calm Calm - N/A   Clear
10:35 AM 69.8 °F 51.8 °F 53% 30.03 in 10.0 mi NNW 4.6 mph - N/A   Clear
10:55 AM 69.8 °F 55.4 °F 60% 30.03 in 10.0 mi Calm Calm - N/A   Clear
11:15 AM 71.6 °F 53.6 °F 53% 30.03 in 10.0 mi Calm Calm - N/A   Clear
11:35 AM 71.6 °F 55.4 °F 57% 30.03 in 10.0 mi West 8.1 mph - N/A   Scattered Clouds
11:55 AM 71.6 °F 55.4 °F 57% 30.03 in 10.0 mi Variable 5.8 mph - N/A   Scattered Clouds
12:15 PM 73.4 °F 55.4 °F 53% 30.02 in 10.0 mi WNW 4.6 mph 11.5 mph N/A   Scattered Clouds
12:35 PM 73.4 °F 55.4 °F 53% 30.02 in 10.0 mi Variable 5.8 mph 15.0 mph N/A   Mostly Cloudy
12:55 PM 71.6 °F 57.2 °F 60% 30.02 in 10.0 mi Calm Calm 12.7 mph N/A   Mostly Cloudy
1:15 PM 73.4 °F 57.2 °F 57% 30.01 in 10.0 mi North 8.1 mph - N/A   Mostly Cloudy
1:35 PM 73.4 °F 57.2 °F 57% 30.01 in 10.0 mi NW 4.6 mph 11.5 mph N/A   Mostly Cloudy
1:55 PM 73.4 °F 55.4 °F 53% 30.01 in 10.0 mi NW 5.8 mph - N/A   Overcast
2:15 PM 73.4 °F 55.4 °F 53% 30.00 in 10.0 mi NNW 6.9 mph - N/A   Overcast
2:35 PM 73.4 °F 55.4 °F 53% 30.00 in 10.0 mi WNW 10.4 mph 16.1 mph N/A   Mostly Cloudy
2:55 PM 77.0 °F 55.4 °F 47% 30.00 in 10.0 mi WNW 8.1 mph 15.0 mph N/A   Scattered Clouds
3:15 PM 75.2 °F 53.6 °F 47% 30.00 in 10.0 mi NNW 8.1 mph 17.3 mph N/A   Scattered Clouds
3:35 PM 77.0 °F 55.4 °F 47% 30.00 in 10.0 mi NW 12.7 mph - N/A   Mostly Cloudy
3:55 PM 77.0 °F 53.6 °F 44% 29.99 in 10.0 mi WNW 9.2 mph 16.1 mph N/A   Scattered Clouds
4:15 PM 77.0 °F 51.8 °F 41% 29.99 in 10.0 mi NW 11.5 mph 20.7 mph N/A   Scattered Clouds
4:35 PM 77.0 °F 53.6 °F 44% 29.99 in 10.0 mi NNW 10.4 mph - N/A   Scattered Clouds
4:55 PM 77.0 °F 53.6 °F 44% 29.99 in 10.0 mi NNW 12.7 mph - N/A   Partly Cloudy
5:15 PM 77.0 °F 53.6 °F 44% 29.99 in 10.0 mi NW 9.2 mph 15.0 mph N/A   Clear
5:35 PM 75.2 °F 53.6 °F 47% 29.99 in 10.0 mi NNW 8.1 mph 16.1 mph N/A   Scattered Clouds
5:55 PM 77.0 °F 55.4 °F 47% 29.99 in 10.0 mi NNW 8.1 mph 15.0 mph N/A   Scattered Clouds
6:15 PM 77.0 °F 55.4 °F 47% 29.99 in 10.0 mi NW 6.9 mph 15.0 mph N/A   Scattered Clouds
6:35 PM 75.2 °F 55.4 °F 50% 29.99 in 10.0 mi NNW 12.7 mph 19.6 mph N/A   Scattered Clouds
6:55 PM 75.2 °F 55.4 °F 50% 30.00 in 10.0 mi NNW 8.1 mph 13.8 mph N/A   Partly Cloudy
7:15 PM 73.4 °F 57.2 °F 57% 30.01 in 10.0 mi NNW 9.2 mph 16.1 mph N/A   Clear
7:35 PM 73.4 °F 55.4 °F 53% 30.02 in 10.0 mi Variable 8.1 mph - N/A   Clear
7:55 PM 71.6 °F 55.4 °F 57% 30.02 in 10.0 mi North 5.8 mph 15.0 mph N/A   Clear
8:15 PM 69.8 °F 55.4 °F 60% 30.03 in 10.0 mi NNW 4.6 mph - N/A   Clear
8:35 PM 68.0 °F 55.4 °F 64% 30.04 in 10.0 mi Calm Calm - N/A   Clear
8:55 PM 68.0 °F 55.4 °F 64% 30.05 in 10.0 mi Calm Calm - N/A   Clear
9:15 PM 66.2 °F 55.4 °F 68% 30.06 in 10.0 mi Calm Calm - N/A   Clear
9:35 PM 66.2 °F 53.6 °F 64% 30.06 in 10.0 mi North 3.5 mph - N/A   Clear
9:55 PM 64.4 °F 55.4 °F 73% 30.06 in 10.0 mi Calm Calm - N/A   Clear
10:15 PM 62.6 °F 55.4 °F 77% 30.07 in 10.0 mi Calm Calm - N/A   Partly Cloudy
10:35 PM 62.6 °F 53.6 °F 72% 30.07 in 10.0 mi Calm Calm - N/A   Partly Cloudy
10:55 PM 60.8 °F 53.6 °F 77% 30.08 in 10.0 mi Calm Calm - N/A   Clear
11:15 PM 59.0 °F 55.4 °F 88% 30.08 in 10.0 mi Calm Calm - N/A   Clear
11:35 PM 59.0 °F 55.4 °F 88% 30.08 in 10.0 mi Calm Calm - N/A   Clear
11:55 PM 57.2 °F 55.4 °F 94% 30.09 in 10.0 mi Calm Calm - N/A   Clear